{"data":{"norad_id":48213,"epoch":"2026-09-19T23:58:03.931104Z","epoch_age_seconds":61538,"freshness":"FRESH","line1":"1 48213U 21031D   26262.99865661  .00000105  00000+0  24876-3 0  9998","line2":"2 48213  87.8901 270.7935 0001501  87.7769 272.3532 13.14504329260674","mean_motion":13.14504329,"eccentricity":0.0001501,"inclination_deg":87.8901,"raan_deg":270.7935,"arg_perigee_deg":87.7769,"mean_anomaly_deg":272.3532,"bstar":0.00024876,"rev_number":26067,"period_min":109.54699564173,"perigee_km":1204.6461270676,"apogee_km":1206.922820294,"semimajor_km":7583.9214736808,"source":"CELESTRAK","updated_at":"2026-09-20T09:00:44.592516Z"}}